Location: Nelson
(41.2830°S, 173.2830°E)
Time: 12:51:43
(UTC+13:00)

Radarsat Rocket - Pass Details

Date: 30 September 2021
Orbit: 933 x 1492 km, 100.6° (Epoch: 27 October)

Event Time Altitude Azimuth Distance (km) Brightness Sun altitude
Rises 06:12:54 0° 36° (NE) 4,593 7.8 -10.2°
Reaches altitude 10° 06:15:47 10° 40° (NE) 3,635 7.3 -9.6°
Maximum altitude 06:24:09 56° 114° (ESE) 1,735 5.8 -8.1°
Drops below altitude 10° 06:32:16 10° 188° (S) 3,534 6.9 -6.6°
Sets 06:35:01 0° 192° (SSW) 4,458 7.4 -6.1°
